[[{"header":{"parameterUnit":"m.s-1","parameterCategory":1,"la1":30.2991,"la2":30.254,"lo1":-89.0895,"lo2":-89.0444,"dy":0.0017,"dx":0.0017,"nx":28,"ny":28,"refTime":"2025-09-01T09:00:00:Z","depth":0,"parameterNumber":2,"parameterNumberName":"U-component_of_WINDS"},"data":[0,0,0,0,0,0,0,0,0,0,0,0,0,0,0,0,0,0,0,0,0,0,0,0,0,0,0,0,0,0,0,0,0,0,0,0,0,0,0,0,0,0,0,0,0,0,0,0,0,0,0,0,0,0,0,0,0,0,-3.9724,-3.9726,0,-3.9933,-3.9936,-3.9938,-3.9911,-3.9907,-3.9904,-3.99,-4.0119,-4.0127,-4.0136,0,0,0,0,0,0,0,0,0,0,0,0,0,-3.9302,-3.931,-3.9724,-3.9726,-3.9729,-3.9933,-3.9936,-3.9939,-3.9911,-3.9907,-3.9903,-3.9899,-4.0116,-4.0126,-4.0137,0,0,0,0,0,0,0,0,0,0,0,0,0,-3.9496,-3.9312,-3.9723,-3.974,-3.9743,-3.9932,-3.9936,-3.994,-3.9912,-3.9907,-3.9902,-3.9897,-4.0112,-4.0125,-4.0139,-4.0326,0,0,-4.018,-4.0186,0,0,0,0,0,0,0,0,-3.9485,-3.9511,-3.9735,-3.9739,-3.9743,-3.989,-3.9867,-4.0069,-3.9913,-3.9848,-3.99,-3.9894,-4.0047,-4.0066,-4.0116,-4.0336,-4.0345,-4.0181,-4.0189,-4.0195,-4.0199,0,0,0,0,0,0,0,-3.9471,-3.9502,-3.9807,-3.9738,-3.9743,-3.9737,-3.9759,-3.9905,-3.9974,-3.9853,-3.9852,-3.9877,-4.0048,-4.0103,-4.0121,-4.0349,-4.0181,-4.0193,-4.0201,-4.0206,-4.0732,-4.0737,0,0,0,0,0,0,-3.9453,-3.9491,-3.98,-3.9813,-3.9598,-3.9749,-3.9774,-3.9849,-3.9973,-3.9986,-3.9881,-3.9875,-4.0083,-4.0106,-4.0129,-4.0356,-4.0195,-4.0208,-4.0216,-4.0726,-4.0733,-4.0739,0,0,0,0,0,0,-3.9444,-3.9481,-3.9792,-3.9652,-3.9691,-3.9762,-3.9846,-3.9855,-3.991,-3.9993,-4.0006,-3.9924,-4.008,-4.011,-4.0277,-4.0363,-4.0214,-4.0226,-4.0719,-4.0728,-4.0736,-4.0811,0,0,0,0,0,0,-3.9432,-3.9478,-3.9549,-3.9654,-3.9698,-3.9935,-3.9852,-3.9863,-3.9933,-3.9927,-4.0037,-4.0051,-4.0078,-4.0257,-4.029,-4.0379,-4.0237,-4.0712,-4.0723,-4.0734,-4.0801,-4.0821,-4.0838,0,0,0,0,0,-3.9417,-3.9563,-3.9553,-3.9591,-3.9789,-3.994,-3.9966,-3.9993,-3.994,-4.0013,-4.0066,-4.0047,-4.0348,-4.0274,-4.0311,-4.0405,-4.0707,-4.072,-4.0733,-4.0793,-4.0817,-4.0838,0,0,0,0,0,0,-3.9468,-3.9577,-3.9567,-3.9751,-3.9836,-3.9935,-4.0027,-4.0018,-4.0122,-4.0112,-4.0142,-4.0168,-4.0336,-4.0388,-4.0303,-4.0593,-4.052,-4.0541,-4.0553,-4.0577,-4.0595,-4.0579,-4.0248,0,0,0,0,0,-3.9501,-3.9613,-3.9703,-3.9856,-3.9899,-3.9956,-4.0023,-4.0037,-4.0127,-4.0163,-4.0229,-4.0318,-4.0433,-4.0508,-4.0618,-4.0809,-4.0832,-4.0892,-4.091,-4.0925,-4.0943,-4.1047,-4.1074,-4.0783,-4.0783,-4.0782,0,0,-3.9569,-3.9642,-3.9712,-3.9868,-3.9936,-4.0053,-3.9987,-4.0113,-4.02,-4.0183,-4.0344,-4.0395,-4.0497,-4.0676,-4.0759,-4.0725,-4.1029,-4.0942,-4.0953,-4.0963,-4.1063,-4.1091,-4.1115,-4.0792,-4.079,-4.0788,0,0,-3.9753,-3.982,-3.9954,-4.0023,-4.0126,-4.0163,-4.0196,-4.0296,-4.0329,-4.0491,-4.048,-4.0585,-4.0782,-4.0854,-4.0917,-4.1128,-4.1115,-4.1164,-4.126,-4.1362,-4.1384,-4.1405,-4.148,-4.1506,-4.1181,-4.1181,-4.1182,0,-3.9825,-3.9999,-4.0025,-4.0153,-4.0221,-4.021,-4.0346,-4.0413,-4.0547,-4.0595,-4.0555,-4.0801,-4.0869,-4.1065,-4.1116,-4.1168,-4.1206,-4.1151,-4.1379,-4.14,-4.1419,-4.1491,-4.1519,-4.1187,-4.1186,-4.1186,-4.1185,0,-4.0083,-4.0204,-4.03,-4.0428,-4.0509,-4.064,-4.0686,-4.0764,-4.0771,-4.0812,-4.0977,-4.1058,-4.1184,-4.1232,-4.124,-4.1429,-4.1404,-4.1372,-4.1299,-4.1452,-4.1519,-4.1547,-4.1194,-4.1192,-4.1191,-4.1189,0,0,-4.0304,-4.0444,-4.0479,-4.0537,-4.065,-4.0744,-4.0876,-4.0997,-4.1063,-4.1157,-4.1268,-4.1435,-4.1404,-4.1476,-4.1493,-4.1581,-4.1742,-4.1538,-4.154,-4.1572,-4.1955,-4.1978,-4.2009,-4.1734,-4.174,-4.1744,-4.1946,0,-4.0498,-4.0728,-4.0755,-4.096,-4.1072,-4.1063,-4.1177,-4.126,-4.1302,-4.1404,-4.1451,-4.1568,-4.152,-4.1563,-4.165,-4.1704,-4.182,-4.169,-4.1838,-4.1843,-4.1811,-4.2045,-4.207,-4.2256,-4.1972,-4.1977,-4.198,0,-4.0755,-4.0853,-4.107,-4.1166,-4.1214,-4.1316,-4.143,-4.1527,-4.1621,-4.1645,-4.1724,-4.173,-4.1866,-4.1789,-4.1977,-4.1888,-4.1951,-4.1986,-4.1994,-4.2008,-4.192,-4.2064,-4.2316,-4.2344,-4.2022,-4.2019,-4.2016,0,-4.0893,-4.108,-4.1234,-4.1284,-4.14,-4.1472,-4.1525,-4.1612,-4.1684,-4.1784,-4.183,-4.1945,-4.2008,-4.2098,-4.2134,-4.2075,-4.2321,-4.2246,-4.2345,-4.2344,-4.2396,-4.2392,-4.2661,-4.2439,-4.2438,-4.2438,-4.2437,0,-4.1106,-4.1238,-4.1297,-4.1391,-4.1539,-4.1569,-4.1715,-4.1765,-4.1843,-4.1947,-4.1948,-4.2046,-4.2088,-4.2194,-4.2224,-4.2375,-4.2404,-4.2427,-4.2434,-4.2427,-4.2424,-4.2467,-4.2455,-4.2445,-4.2443,-4.2442,-4.2441,0,-4.1285,-4.133,-4.1496,-4.1592,-4.162,-4.1725,-4.1808,-4.1899,-4.194,-4.2072,-4.2105,-4.217,-4.2294,-4.2339,-4.2491,-4.2511,-4.2685,-4.2682,-4.2653,-4.2654,-4.275,-4.274,-4.3055,-4.3098,-4.2848,-4.2851,-4.2853,0,-4.1417,-4.1518,-4.1625,-4.1694,-4.1749,-4.186,-4.1933,-4.1966,-4.2042,-4.2155,-4.2233,-4.2356,-4.2456,-4.2655,-4.2716,-4.2832,-4.283,-4.2933,-4.2847,-4.2837,-4.283,-4.2823,-4.2833,-4.2948,-4.2951,-4.2953,-4.2954,0,-4.1647,-4.1664,-4.1767,-4.1879,-4.1964,-4.2054,-4.2142,-4.2199,-4.2245,-4.2331,-4.2456,-4.2533,-4.2687,-4.2809,-4.2928,-4.2983,-4.2977,-4.2981,-4.301,-4.3003,-4.2982,-4.2993,-4.2695,-4.2973,-4.2971,-4.297,-4.2969,-4.2968,-4.1806,-4.1895,-4.1984,-4.2099,-4.2168,-4.2249,-4.2339,-4.2391,-4.2496,-4.2622,-4.2636,-4.2771,-4.2863,-4.3021,-4.3082,-4.3188,-4.3161,-4.3203,-4.3213,-4.3223,-4.3229,-4.2966,-4.3211,-4.321,-4.321,-4.3209,-4.3209,0,-4.2034,-4.209,-4.2196,-4.2317,-4.2408,-4.2393,-4.2489,-4.2566,-4.2684,-4.2769,-4.2867,-4.3011,-4.313,-4.32,-4.3319,-4.3391,-4.3392,-4.3422,-4.3416,-4.3429,-4.3247,-4.321,-4.3419,-4.3419,-4.3419,-4.3419,-4.3419,-4.3419,-4.2163,-4.2313,-4.234,-4.2524,-4.258,-4.2711,-4.2767,-4.2842,-4.291,-4.307,-4.3168,-4.3213,-4.3292,-4.3417,-4.3525,-4.3543,-4.3587,-4.3619,-4.3634,-4.3463,-4.3441,-4.3421,-4.3386,-4.3628,-4.3629,-4.3806,-4.3808,-4.3809]},{"header":{"parameterUnit":"m.s-1","parameterCategory":1,"la1":30.2991,"la2":30.254,"lo1":-89.0895,"lo2":-89.0444,"dy":0.0017,"dx":0.0017,"nx":28,"ny":28,"refTime":"2025-09-01T09:00:00:Z","depth":0,"parameterNumber":3,"parameterNumberName":"V-component_of_WINDS"},"data":[0,0,0,0,0,0,0,0,0,0,0,0,0,0,0,0,0,0,0,0,0,0,0,0,0,0,0,0,0,0,0,0,0,0,0,0,0,0,0,0,0,0,0,0,0,0,0,0,0,0,0,0,0,0,0,0,0,0,-1.5406,-1.5405,0,-1.5305,-1.5304,-1.5303,-1.5227,-1.5226,-1.5226,-1.5225,-1.5119,-1.5117,-1.5115,0,0,0,0,0,0,0,0,0,0,0,0,0,-1.5529,-1.5527,-1.5406,-1.5404,-1.5403,-1.5305,-1.5304,-1.5303,-1.5227,-1.5226,-1.5225,-1.5225,-1.512,-1.5117,-1.5115,0,0,0,0,0,0,0,0,0,0,0,0,0,-1.5456,-1.5526,-1.5406,-1.5354,-1.5348,-1.5306,-1.5304,-1.5302,-1.5227,-1.5226,-1.5225,-1.5224,-1.5121,-1.5118,-1.5114,-1.5115,0,0,-1.5104,-1.5103,0,0,0,0,0,0,0,0,-1.5461,-1.5452,-1.5363,-1.5357,-1.5351,-1.5278,-1.5308,-1.5239,-1.5227,-1.5273,-1.5225,-1.5224,-1.5173,-1.5165,-1.5148,-1.511,-1.5105,-1.5104,-1.5102,-1.5101,-1.51,0,0,0,0,0,0,0,-1.5466,-1.5456,-1.5366,-1.5361,-1.5354,-1.5334,-1.5323,-1.5295,-1.523,-1.5269,-1.5263,-1.5253,-1.5169,-1.5152,-1.5145,-1.5104,-1.5104,-1.5101,-1.5099,-1.5098,-1.5058,-1.5059,0,0,0,0,0,0,-1.5479,-1.546,-1.5369,-1.5363,-1.5404,-1.5333,-1.532,-1.5302,-1.523,-1.5218,-1.5253,-1.5249,-1.5158,-1.5149,-1.5141,-1.5136,-1.5101,-1.5098,-1.5096,-1.5057,-1.5059,-1.5059,0,0,0,0,0,0,-1.5482,-1.5472,-1.5373,-1.541,-1.5396,-1.5332,-1.5312,-1.5301,-1.5283,-1.5218,-1.5206,-1.5248,-1.5157,-1.5146,-1.5122,-1.5131,-1.5096,-1.5093,-1.5056,-1.5058,-1.5059,-1.5126,0,0,0,0,0,0,-1.5486,-1.5473,-1.5474,-1.5411,-1.5394,-1.5357,-1.5313,-1.5299,-1.5278,-1.5272,-1.521,-1.5198,-1.5155,-1.5127,-1.5118,-1.5126,-1.5091,-1.5055,-1.5057,-1.5059,-1.5122,-1.5129,-1.5135,0,0,0,0,0,-1.5491,-1.5496,-1.5474,-1.5464,-1.5394,-1.5357,-1.5348,-1.5299,-1.5279,-1.5278,-1.5236,-1.52,-1.5131,-1.5125,-1.5115,-1.5121,-1.5054,-1.5056,-1.5058,-1.5119,-1.5128,-1.5135,0,0,0,0,0,0,-1.5562,-1.5487,-1.5462,-1.5448,-1.5409,-1.5345,-1.5342,-1.5309,-1.5275,-1.527,-1.521,-1.5196,-1.5178,-1.5147,-1.5142,-1.5117,-1.5088,-1.5088,-1.5138,-1.5145,-1.5152,-1.5159,-1.5088,0,0,0,0,0,-1.5576,-1.5554,-1.5489,-1.5483,-1.5465,-1.5407,-1.5389,-1.5355,-1.5312,-1.5296,-1.5252,-1.5211,-1.518,-1.5161,-1.5129,-1.5117,-1.5102,-1.5117,-1.5123,-1.5128,-1.5129,-1.5119,-1.5124,-1.5066,-1.5066,-1.5066,0,0,-1.5605,-1.5561,-1.5551,-1.5496,-1.5462,-1.5439,-1.5394,-1.5372,-1.5354,-1.5292,-1.5266,-1.5233,-1.5183,-1.5165,-1.5155,-1.5139,-1.5142,-1.5131,-1.5136,-1.5133,-1.5122,-1.5127,-1.5132,-1.5068,-1.5067,-1.5067,0,0,-1.5645,-1.5611,-1.5601,-1.5568,-1.5518,-1.5479,-1.5477,-1.5416,-1.5392,-1.5366,-1.5318,-1.5295,-1.5243,-1.521,-1.5186,-1.5212,-1.5177,-1.5203,-1.5236,-1.5227,-1.5232,-1.5235,-1.5244,-1.5248,-1.5204,-1.5204,-1.5205,0,-1.5687,-1.5651,-1.56,-1.558,-1.5556,-1.55,-1.5489,-1.5459,-1.5401,-1.5385,-1.5368,-1.5301,-1.5264,-1.5236,-1.5243,-1.5226,-1.522,-1.521,-1.5235,-1.5239,-1.5241,-1.5249,-1.5252,-1.5208,-1.5207,-1.5207,-1.5207,0,-1.5704,-1.5681,-1.5678,-1.5624,-1.56,-1.5585,-1.553,-1.5511,-1.5479,-1.5441,-1.5414,-1.5367,-1.5324,-1.5315,-1.5283,-1.5282,-1.5274,-1.5247,-1.5217,-1.5251,-1.5257,-1.5259,-1.5213,-1.5212,-1.5211,-1.521,0,0,-1.5787,-1.5704,-1.5704,-1.5678,-1.5618,-1.5598,-1.5579,-1.5538,-1.5523,-1.5484,-1.5466,-1.5423,-1.5397,-1.537,-1.5333,-1.5325,-1.5348,-1.5299,-1.5297,-1.5309,-1.5343,-1.5363,-1.5368,-1.5324,-1.5325,-1.5325,-1.5347,0,-1.5818,-1.5782,-1.5735,-1.5715,-1.5691,-1.5636,-1.562,-1.558,-1.5545,-1.5518,-1.5478,-1.5448,-1.5417,-1.54,-1.539,-1.5347,-1.5354,-1.5345,-1.5306,-1.5305,-1.5319,-1.5371,-1.5392,-1.5415,-1.5349,-1.5349,-1.5349,0,-1.5848,-1.5813,-1.5791,-1.5732,-1.572,-1.5707,-1.5664,-1.564,-1.5593,-1.5568,-1.5537,-1.5497,-1.5473,-1.5446,-1.5412,-1.5407,-1.5388,-1.5364,-1.5363,-1.5358,-1.5329,-1.5365,-1.5422,-1.5425,-1.5353,-1.5352,-1.5352,0,-1.591,-1.5857,-1.5836,-1.5816,-1.5747,-1.5738,-1.5709,-1.5661,-1.5639,-1.5601,-1.5586,-1.5546,-1.5524,-1.5493,-1.5442,-1.5428,-1.5412,-1.5382,-1.5389,-1.5391,-1.5388,-1.5389,-1.5442,-1.5377,-1.5377,-1.5377,-1.5377,0,-1.5948,-1.5937,-1.5863,-1.5851,-1.5835,-1.578,-1.5766,-1.5731,-1.5689,-1.5668,-1.5618,-1.5599,-1.5534,-1.5506,-1.5466,-1.5443,-1.5433,-1.5411,-1.5401,-1.5415,-1.5418,-1.5402,-1.5399,-1.5378,-1.5378,-1.5378,-1.5378,0,-1.6014,-1.5965,-1.5939,-1.5875,-1.5859,-1.585,-1.5795,-1.578,-1.5741,-1.5715,-1.5705,-1.5644,-1.5609,-1.5556,-1.5505,-1.5478,-1.5461,-1.5444,-1.5477,-1.5471,-1.5481,-1.5481,-1.5525,-1.5527,-1.5462,-1.5463,-1.5463,0,-1.6042,-1.6032,-1.5967,-1.595,-1.5922,-1.5895,-1.5872,-1.5816,-1.5794,-1.574,-1.5731,-1.5692,-1.5659,-1.5605,-1.5555,-1.5515,-1.5497,-1.5515,-1.549,-1.5505,-1.5496,-1.5497,-1.5495,-1.5521,-1.5522,-1.5523,-1.5523,0,-1.6096,-1.6072,-1.6041,-1.6002,-1.5976,-1.5942,-1.5905,-1.5893,-1.5829,-1.5807,-1.5771,-1.5745,-1.5693,-1.5655,-1.5608,-1.5576,-1.5538,-1.5531,-1.5531,-1.5546,-1.5565,-1.5554,-1.5492,-1.553,-1.553,-1.5529,-1.5529,-1.5528,-1.6143,-1.6131,-1.6084,-1.6051,-1.6017,-1.5984,-1.5967,-1.5926,-1.5895,-1.5849,-1.5818,-1.5784,-1.5735,-1.5669,-1.5639,-1.561,-1.5594,-1.5594,-1.5593,-1.5594,-1.5599,-1.557,-1.5601,-1.5601,-1.5601,-1.5601,-1.56,0,-1.6194,-1.616,-1.6131,-1.6081,-1.6055,-1.6023,-1.5981,-1.5961,-1.5931,-1.589,-1.5858,-1.5816,-1.5778,-1.5726,-1.5684,-1.5671,-1.5653,-1.5662,-1.5662,-1.5655,-1.5616,-1.5621,-1.5677,-1.5677,-1.5677,-1.5677,-1.5677,-1.5677,-1.6217,-1.6195,-1.6165,-1.6125,-1.6091,-1.6058,-1.6036,-1.6005,-1.5971,-1.5927,-1.5896,-1.5862,-1.5816,-1.577,-1.5733,-1.5719,-1.5705,-1.572,-1.5699,-1.5665,-1.5658,-1.5651,-1.5655,-1.5717,-1.5717,-1.574,-1.574,-1.574]}]]